Flag for Algeria Weather past 2 weeks in Oran, Algeria

Now
41 °F

Clear.


Feels Like: 41 °F
Forecast: 48 / 60 °F
Wind: No wind

Location: Oran / Es Senia

Current Time: Jan 27, 2015 at 2:57:11 AM

Latest Report: Jan 27, 2015 at 2:30 AM


Visibility: 10 mi

Pressure: 30.33 "Hg

Humidity: 93%

Dew point: 39 °F

Location of OranLocation

Historic Weather in Oran — Graph

°F

Oran temperature yesterday

Maximum temperature yesterday: 63 °F (at 4:00 PM)
Minimum temperature yesterday: 36 °F (at 8:00 AM)
Average temperature yesterday: 48 °F

Past Weeks' High & Low Weather Summary

 TemperatureHumidityPressure
High72 °F (Jan 14, 2:00 PM)100% (Jan 14, 7:00 AM)30.51 "Hg (Jan 14, 7:00 AM)
Low36 °F (Jan 26, 8:00 AM)39% (Jan 18, 3:00 PM)29.62 "Hg (Jan 19, 6:00 AM)
Average51 °F82%30.13 "Hg
* Reported Jan 12 1:00 AM — Jan 27 1:30 AM, Oran, Weather by CustomWeather, © 2014

Note: Actual official high and low records may vary slightly from our data, if they occured in-between our weather recording intervals... More about our weather records

Advertising

Oran weather history for previous 24 hours

 ConditionsComfort  
Time TempWeatherWind HumidityBarometerVisibility
1:30 AM
Jan 27
41 °FClear.No wind93%30.33 "Hg10 mi
1:00 AM43 °FClear.No wind87%30.33 "Hg10 mi
12:30 AM41 °FClear.No wind93%30.33 "Hg10 mi
12:00 AM43 °FClear.No wind93%30.33 "Hg10 mi
11:30 PM
Jan 26
43 °FClear.No wind87%30.33 "Hg10 mi
11:00 PM43 °FClear.No wind93%30.33 "Hg10 mi
10:30 PM45 °FClear.No wind87%30.33 "Hg10 mi
10:00 PM46 °FClear.2 mph82%30.33 "Hg10 mi
9:30 PM46 °FClear.No wind87%30.33 "Hg10 mi
9:00 PM48 °FClear.2 mph87%30.33 "Hg10 mi
8:30 PM50 °FClear.2 mph82%30.33 "Hg10 mi
8:00 PM52 °FClear.2 mph77%30.33 "Hg10 mi
7:30 PM55 °FClear.2 mph72%30.30 "Hg10 mi
7:00 PM55 °FClear.2 mph72%30.30 "Hg10 mi
6:30 PM55 °FPassing clouds.2 mph67%30.30 "HgN/A
6:00 PM59 °FPassing clouds.2 mph59%30.30 "HgN/A
5:30 PM61 °FPassing clouds.2 mph52%30.30 "HgN/A
5:00 PM61 °FPassing clouds.2 mph52%30.30 "HgN/A
4:30 PM63 °FPassing clouds.2 mph56%30.30 "HgN/A
4:00 PM63 °FPassing clouds.2 mph56%30.30 "HgN/A
3:30 PM61 °FScattered clouds.No wind55%30.30 "HgN/A
3:00 PM61 °FScattered clouds.2 mph55%30.30 "HgN/A
2:30 PM59 °FScattered clouds.6 mph59%30.30 "HgN/A
2:00 PM59 °FScattered clouds.6 mph59%30.30 "HgN/A
1:30 PM57 °FScattered clouds.2 mph63%30.33 "HgN/A
1:00 PM55 °FScattered clouds.2 mph67%30.33 "HgN/A
12:30 PM54 °FScattered clouds.2 mph88%30.36 "HgN/A
12:00 PM52 °FScattered clouds.2 mph94%30.36 "HgN/A
11:30 AM48 °FScattered clouds.2 mph94%30.36 "HgN/A
11:00 AM46 °FScattered clouds.2 mph100%30.33 "HgN/A
10:30 AM45 °FScattered clouds.2 mph93%30.30 "Hg3 mi
10:00 AM43 °FFog.No wind100%30.30 "Hg1 mi
9:30 AM45 °FFog.No wind100%30.30 "Hg0 mi
9:00 AM45 °FFog.2 mph100%30.30 "Hg0 mi
8:30 AM36 °FFog.No wind100%30.30 "Hg0 mi
8:00 AM36 °FFog.No wind100%30.27 "Hg0 mi
7:30 AM39 °FFog.No wind93%30.27 "Hg1 mi
7:00 AM39 °FPassing clouds.No wind93%30.27 "HgN/A
6:30 AM39 °FPassing clouds.No wind100%30.24 "HgN/A
6:00 AM39 °FPassing clouds.2 mph100%30.24 "HgN/A
5:30 AM39 °FPassing clouds.6 mph93%30.27 "HgN/A
5:00 AM39 °FPassing clouds.No wind93%30.27 "HgN/A
4:30 AM39 °FPassing clouds.No wind93%30.27 "HgN/A
4:00 AM39 °FPassing clouds.1 mph93%30.27 "HgN/A
3:30 AM41 °FPassing clouds.3 mph87%30.27 "HgN/A
2:00 AM41 °FPassing clouds.No wind93%30.27 "HgN/A
Weather by CustomWeather, © 2014

See weather overviewHow to use our weather pages